Location: Castiglione Fibocchi
(43.5333°N, 11.7667°E)
Time: 18:30:04
(UTC+00:00)

Cosmos 1825 - Pass Details

Date: 15 August 2020
Orbit: 502 x 509 km, 82.5° (Epoch: 19 September)

Event Time Altitude Azimuth Distance (km) Brightness Sun altitude
Rises 03:34:11 0° 357° (N) 2,613 6.1 -8.1°
Reaches altitude 10° 03:36:24 10° 4° (N) 1,723 5.3 -7.7°
Maximum altitude 03:40:01 45° 78° (ENE) 697 3.5 -7.1°
Drops below altitude 10° 03:43:37 10° 152° (SSE) 1,706 4.9 -6.6°
Sets 03:45:47 0° 159° (SSE) 2,585 5.7 -6.2°
